Location: Austin
(30.3000°N, 97.7500°W)
Time: 13:17:32
(UTC-05:00)

Cosmos 2123 Rocket - Pass Details

Date: 01 August 2025
Orbit: 961 x 990 km, 82.9° (Epoch: 12 May)

Event Time Altitude Azimuth Distance (km) Brightness Sun altitude
Rises 04:45:57 0° 357° (N) 3,680 7.5 -23.8°
Reaches altitude 10° 04:48:29 10° 360° (N) 2,734 6.8 -23.4°
Maximum altitude 04:54:44 70° 83° (E) 1,041 4.2 -22.4°
Drops below altitude 10° 05:01:00 10° 167° (SSE) 2,736 6.1 -21.3°
Enters shadow 05:02:05 - 169° (SSE) 3,142 6.4 -21.1°
